Simultaneous Nadir Overpasses (SNOs) Predictions

Prediction of SNOs between GOES-16 and METOP-B Satellite Orbit:

Table of predicted SNOs for the next 14.0 days since TLE Epoch: 8/20/2022
Index Date Time (GOES-16) GOES-16 Lat,Lon METOP-B Lat,Lon Distance(km) Time Diff (sec)
1 08/22/2022 14:30:21 -0.02, -75.22 -0.13, -74.79 48.21 80
2 08/24/2022 02:49:20 0.02, -75.21 -0.89, -79.39 475.94 80
3 08/25/2022 02:26:00 0.02, -75.22 0.19, -74.39 94.30 80
4 08/26/2022 14:47:31 -0.01, -75.24 0.80, -78.95 421.93 80
5 08/27/2022 14:24:11 -0.01, -75.26 -0.29, -73.95 148.59 80
6 08/29/2022 02:45:50 0.01, -75.26 -0.73, -78.54 374.28 80
7 08/30/2022 02:22:30 0.01, -75.27 0.42, -73.55 196.60 80
8 08/31/2022 14:44:01 -0.01, -75.31 0.63, -78.11 318.68 80
9 09/01/2022 14:20:41 -0.01, -75.33 -0.52, -73.12 252.39 80
10 09/03/2022 02:42:20 0.01, -75.34 -0.49, -77.71 269.96 80
